Home   Weather   Almaty   Past weeks
Flag for Kazakhstan

Past Weather in Almaty, Kazakhstan — Yesterday and Last 2 Weeks

Now
32 °F

Ice fog.


Feels Like: 29 °F
Forecast: 56 / 36 °F
Wind: 3 mph from South

Location: Almaty Airport

Current Time: Oct 23, 2019 at 1:24:12 am

Latest Report: Oct 23, 2019 at 1:00 am


Visibility: 1 mi

Pressure: 30.24 "Hg (27.39 "Hg at 790m altitude)

Humidity: 87%

Dew Point: 28 °F

Location of AlmatyLocation

Past Weather in Almaty — Graph

°F

Almaty Temperature Yesterday

Maximum temperature yesterday: 48 °F (at 3:30 pm)
Minimum temperature yesterday: 28 °F (at 7:00 am)
Average temperature yesterday: 36 °F

High & Low Weather Summary for the Past Weeks

 TemperatureHumidityPressure
High75 °F (Oct 8, 1:00 pm)100% (Oct 12, 10:30 pm)30.45 "Hg (Oct 12, 10:30 pm)
Low28 °F (Oct 22, 7:00 am)19% (Oct 14, 3:00 pm)30.01 "Hg (Oct 8, 12:00 am)
Average51 °F65%30.21 "Hg
* Reported Oct 8 12:00 am — Oct 23 12:00 am, Almaty. Weather by CustomWeather, © 2019

Note: Actual official high and low records may vary slightly from our data, if they occured in-between our weather recording intervals... More about our weather records

Advertising

Almaty Weather History for the Previous 24 Hours

Scroll right to see more
 ConditionsComfort  
Time TempWeatherWind HumidityBarometerVisibility
12:00 am
Wed, Oct 23
32 °FIce fog.3 mph87%30.27 "Hg1 mi
11:30 pm
Tue, Oct 22
32 °FIce fog.3 mph87%30.27 "Hg1 mi
11:00 pm32 °FIce fog.3 mph87%30.27 "Hg1 mi
10:30 pm32 °FIce fog.3 mph87%30.30 "Hg1 mi
10:00 pm34 °FFog.3 mph81%30.30 "Hg1 mi
9:30 pm34 °FFog.1 mph87%30.30 "Hg1 mi
9:00 pm36 °FFog.No wind81%30.30 "Hg1 mi
8:30 pm36 °FFog.No wind81%30.30 "Hg1 mi
8:00 pm37 °FFog.No wind75%30.30 "Hg1 mi
7:30 pm39 °FPassing clouds.No wind65%30.33 "Hg1 mi
7:00 pm41 °FPassing clouds.1 mph57%30.30 "Hg3 mi
6:30 pm43 °FPassing clouds.3 mph53%30.30 "HgN/A
6:00 pm43 °FPassing clouds.3 mph53%30.30 "HgN/A
5:30 pm45 °FPartly sunny.6 mph49%30.30 "HgN/A
5:00 pm46 °FPartly sunny.6 mph46%30.30 "HgN/A
4:30 pm46 °FPartly sunny.6 mph43%30.30 "HgN/A
4:00 pm46 °FScattered clouds.3 mph40%30.27 "HgN/A
3:30 pm48 °FScattered clouds.3 mph37%30.30 "HgN/A
3:00 pm46 °FScattered clouds.1 mph37%30.30 "HgN/A
2:30 pm46 °FScattered clouds.3 mph37%30.30 "HgN/A
2:00 pm46 °FScattered clouds.3 mph37%30.30 "HgN/A
1:30 pm45 °FScattered clouds.1 mph42%30.30 "HgN/A
1:00 pm43 °FScattered clouds.3 mph46%30.30 "HgN/A
12:30 pm41 °FScattered clouds.3 mph49%30.30 "HgN/A
12:00 pm41 °FScattered clouds.1 mph49%30.33 "HgN/A
11:30 am39 °FScattered clouds.3 mph52%30.33 "HgN/A
11:00 am37 °FScattered clouds.1 mph52%30.33 "HgN/A
10:30 am36 °FScattered clouds.3 mph56%30.33 "HgN/A
10:00 am36 °FScattered clouds.3 mph56%30.33 "HgN/A
9:30 am32 °FScattered clouds.3 mph64%30.33 "HgN/A
9:00 am32 °FScattered clouds.3 mph64%30.33 "HgN/A
8:30 am30 °FPartly sunny.3 mph64%30.33 "HgN/A
8:00 am28 °FPartly sunny.3 mph69%30.33 "HgN/A
7:30 am28 °FPartly sunny.3 mph69%30.33 "HgN/A
7:00 am28 °FPassing clouds.6 mph74%30.33 "HgN/A
6:30 am30 °FOvercast.6 mph69%30.30 "HgN/A
6:00 am30 °FOvercast.6 mph64%30.30 "HgN/A
5:30 am30 °FOvercast.3 mph64%30.30 "HgN/A
5:00 am30 °FOvercast.3 mph69%30.30 "HgN/A
4:30 am30 °FOvercast.6 mph69%30.30 "HgN/A
4:00 am32 °FOvercast.6 mph69%30.30 "HgN/A
3:30 am32 °FOvercast.6 mph69%30.30 "HgN/A
3:00 am32 °FOvercast.6 mph75%30.30 "HgN/A
2:30 am32 °FOvercast.6 mph69%30.30 "HgN/A
2:00 am32 °FOvercast.6 mph69%30.30 "HgN/A
1:30 am32 °FPassing clouds.3 mph69%30.30 "HgN/A
1:00 am32 °FPassing clouds.3 mph64%30.33 "HgN/A
Weather by CustomWeather, © 2019

See weather overview